THOR ABLESTAR DEB, 3592

Orbit data source: Space-Track

THOR ABLESTAR DEB, 3592 is space debris in LEO originally from a launch on Thu, 24 Jun 1965 UTC launched from the Air Force Western Test Range (AFWTR). Debris objects in space refer to the collection of defunct objects orbiting the Earth. Examples of debris include non-operational satellites, rocket bodies, and fragments generated from explosions, collisions, or faulty payload assembly.

Loading next visibility...
Identifier
3592, 1965-048F
Orbit
LEO
Country
Flag of USUS
Related business
Manufacturer
Unknown
Mission
Spacecraft
Bus & Motor
Unknown
Mass
Unknown
Launch date (UTC)
1965-06-24 (60 years ago)
Launch vehicle
Unknown
Launch site
Air Force Western Test Range (AFWTR)
Object type
Payload
Rocket body
Debris
Shape & HBR
Unknown
Radar Cross Section
Small (<0.1 m²)

Expand to show TLE details & history
Last TLE update: 10 hours ago

TLE from 10 hours ago
0 THOR ABLESTAR DEB
1 03592U 65048F   25259.56213098  .00000236  00000-0  28621-3 0  9992
2 03592  89.8782 291.2194 0062534  50.9577  71.1748 13.62532995982703
Epoch: 2025-09-16T13:29Z
TLE epoch observation values (Epoch: 2025-09-16T13:29:28.116Z)
Latitude
57.28077°
Longitude
-87.08701°
Altitude
1,021.514 km
Speed
7.354 km/s
True Right ascension
07h 24m 07s
True Declination
57° 07' 47"
Sunlit
Object was in daylight at epoch
Visualization orbit readout
Latitude
Unknown
Longitude
Unknown
Altitude
Unknown
Speed
Unknown
Apparent Right ascension
Unknown
Apparent Declination
Unknown
Sunlit
N/A
Visualization observer readout
Local Sidereal Time
16:17:34
Azimuth
Unknown
Elevation
Unknown
Doppler factor
Unknown
Orbital elements
Apogee altitude
1,069.818 km
Perigee altitude
977.247 km
Semi-major axis
7,401.669 km
Eccentricity
0.00625
Inclination
89.8782°
RAAN
291.2194°
Arg. of periapsis
50.9577°
True anomaly
71.85475°
Mean anomaly
71.1748°
Eccentric anomaly
71.51461°
Mean motion
3.40839 °/min
Orbital period
105.62 mins
BSTAR
0.00028621
Loading maneuver chart data...
Computing Atmospheric mass density...

Documentation

Showing up to 5 results
|